When you browse on this site, cookies collect data to enhance your experience and personalize the content and advertising you see.
Visit our Privacy Policy to learn more. By continuing to use the site, you agree to this use of cookies and data.
  • In Austria
  • List of Countries
  • For 7 days
  • Water Temperature
  • Weather Map
  • News
  • Weather Widgets
  • user-avatar
    Login

    Hourly Weather Nemocon

    Today, 22 September, Sunday

    Time Temperature Precipitation Wind Pressure Humidity
    00:00 +8°C° 0 mm 0 mps 546 mmHg 92%
    01:00 +9°C° 0 mm 1 mps 546 mmHg 91%
    02:00 +9°C° 0 mm 1 mps 546 mmHg 91%
    03:00 +9°C° 0 mm 1 mps 546 mmHg 91%
    04:00 +9°C° 0 mm 1 mps 546 mmHg 91%
    05:00 +10°C° 0 mm 1 mps 547 mmHg 89%
    06:00 +11°C° 0 mm 1 mps 547 mmHg 88%
    07:00 +11°C° 0 mm 1 mps 548 mmHg 87%
    08:00 +13°C° 0 mm 1 mps 549 mmHg 80%
    09:00 +15°C° 0 mm 1 mps 550 mmHg 73%
    10:00 +18°C° 0 mm 1 mps 551 mmHg 66%
    11:00 +17°C° 0.6 mm 2 mps 551 mmHg 67%
    12:00 +17°C° 0.6 mm 2 mps 550 mmHg 68%
    13:00 +18°C° 0.6 mm 2 mps 550 mmHg 69%
    14:00 +17°C° 0.8 mm 2 mps 549 mmHg 70%
    15:00 +17°C° 0.8 mm 2 mps 549 mmHg 71%
    16:00 +17°C° 0.8 mm 2 mps 548 mmHg 72%
    17:00 +15°C° 0.4 mm 2 mps 547 mmHg 79%
    18:00 +13°C° 0.4 mm 1 mps 547 mmHg 86%
    19:00 +11°C° 0.4 mm 1 mps 547 mmHg 93%
    20:00 +11°C° 0.1 mm 1 mps 547 mmHg 93%
    21:00 +10°C° 0.1 mm 1 mps 547 mmHg 94%
    22:00 +10°C° 0.1 mm 1 mps 547 mmHg 95%
    23:00 +10°C° 0 mm 1 mps 547 mmHg 95%

    Tomorrow, 23 September, Monday

    Time Temperature Precipitation Wind Pressure Humidity
    00:00 +10°C° 0 mm 1 mps 546 mmHg 95%
    01:00 +9°C° 0 mm 1 mps 546 mmHg 94%
    02:00 +9°C° 0 mm 1 mps 546 mmHg 94%
    03:00 +9°C° 0 mm 1 mps 546 mmHg 93%
    04:00 +9°C° 0 mm 1 mps 546 mmHg 92%
    05:00 +10°C° 0.1 mm 1 mps 547 mmHg 90%
    06:00 +10°C° 0.1 mm 1 mps 547 mmHg 88%
    07:00 +11°C° 0.1 mm 1 mps 548 mmHg 86%
    08:00 +13°C° 0 mm 1 mps 549 mmHg 78%
    09:00 +16°C° 0 mm 1 mps 551 mmHg 69%
    10:00 +19°C° 0 mm 1 mps 552 mmHg 61%
    11:00 +19°C° 0.4 mm 1 mps 551 mmHg 63%
    12:00 +19°C° 0.4 mm 1 mps 550 mmHg 66%
    13:00 +19°C° 0.4 mm 1 mps 550 mmHg 69%
    14:00 +18°C° 0.9 mm 1 mps 549 mmHg 74%
    15:00 +16°C° 0.9 mm 1 mps 548 mmHg 80%
    16:00 +15°C° 0.9 mm 1 mps 547 mmHg 85%
    17:00 +14°C° 0.8 mm 1 mps 547 mmHg 88%
    18:00 +13°C° 0.8 mm 1 mps 547 mmHg 92%
    19:00 +12°C° 0.8 mm 1 mps 546 mmHg 95%
    20:00 +11°C° 0.4 mm 0 mps 547 mmHg 95%
    21:00 +11°C° 0.4 mm 0 mps 547 mmHg 95%
    22:00 +10°C° 0.4 mm 0 mps 547 mmHg 95%
    23:00 +10°C° 0.4 mm 0 mps 547 mmHg 94%

    Day after tomorrow, 24 September, Tuesday

    Time Temperature Precipitation Wind Pressure Humidity
    00:00 +9°C° 0.4 mm 0 mps 547 mmHg 94%
    01:00 +9°C° 0.4 mm 0 mps 546 mmHg 93%
    02:00 +8°C° 0 mm 0 mps 546 mmHg 93%
    03:00 +8°C° 0 mm 0 mps 546 mmHg 93%
    04:00 +8°C° 0 mm 0 mps 546 mmHg 92%
    05:00 +8°C° 0 mm 0 mps 546 mmHg 90%
    06:00 +9°C° 0 mm 0 mps 547 mmHg 89%
    07:00 +10°C° 0 mm 0 mps 548 mmHg 87%
    08:00 +13°C° 0.1 mm 1 mps 549 mmHg 78%
    09:00 +16°C° 0.1 mm 1 mps 551 mmHg 68%
    10:00 +19°C° 0.1 mm 1 mps 552 mmHg 59%
    11:00 +19°C° 0.4 mm 1 mps 551 mmHg 61%
    12:00 +18°C° 0.4 mm 2 mps 550 mmHg 64%
    13:00 +18°C° 0.4 mm 2 mps 550 mmHg 66%
    14:00 +17°C° 1.1 mm 2 mps 549 mmHg 74%
    15:00 +16°C° 1.1 mm 1 mps 548 mmHg 82%
    16:00 +14°C° 1.1 mm 1 mps 547 mmHg 90%
    17:00 +14°C° 1.4 mm 1 mps 547 mmHg 92%
    18:00 +13°C° 1.4 mm 1 mps 547 mmHg 94%
    19:00 +12°C° 1.4 mm 1 mps 547 mmHg 96%
    20:00 +12°C° 0.8 mm 1 mps 547 mmHg 96%
    21:00 +12°C° 0.8 mm 1 mps 548 mmHg 95%
    22:00 +12°C° 0.8 mm 1 mps 548 mmHg 95%
    23:00 +10°C° 0 mm 0 mps 548 mmHg 95%

    25 September, Wednesday

    Time Temperature Precipitation Wind Pressure Humidity
    00:00 +10°C° 0 mm 0 mps 547 mmHg 95%
    01:00 +10°C° 0 mm 0 mps 547 mmHg 95%
    02:00 +10°C° 0 mm 0 mps 547 mmHg 95%
    03:00 +9°C° 0 mm 0 mps 547 mmHg 95%
    04:00 +9°C° 0 mm 0 mps 546 mmHg 95%
    05:00 +10°C° 0 mm 0 mps 547 mmHg 93%
    06:00 +10°C° 0 mm 0 mps 548 mmHg 92%
    07:00 +12°C° 0 mm 1 mps 549 mmHg 91%
    08:00 +13°C° 0.2 mm 1 mps 549 mmHg 86%
    09:00 +14°C° 0.2 mm 1 mps 550 mmHg 81%
    10:00 +16°C° 0.2 mm 2 mps 551 mmHg 77%
    11:00 +16°C° 0.8 mm 2 mps 550 mmHg 76%
    12:00 +16°C° 0.8 mm 2 mps 550 mmHg 75%
    13:00 +16°C° 0.8 mm 2 mps 549 mmHg 75%
    14:00 +16°C° 1 mm 2 mps 549 mmHg 77%
    15:00 +16°C° 1 mm 2 mps 548 mmHg 80%
    16:00 +15°C° 1 mm 1 mps 548 mmHg 82%
    17:00 +14°C° 0.6 mm 1 mps 547 mmHg 86%
    18:00 +12°C° 0.6 mm 1 mps 547 mmHg 91%
    19:00 +11°C° 0.6 mm 1 mps 546 mmHg 95%
    20:00 +11°C° 0 mm 1 mps 547 mmHg 95%
    21:00 +11°C° 0 mm 1 mps 547 mmHg 95%
    22:00 +11°C° 0 mm 1 mps 548 mmHg 95%
    23:00 +10°C° 0 mm 1 mps 547 mmHg 95%

    26 September, Thursday

    Time Temperature Precipitation Wind Pressure Humidity
    00:00 +10°C° 0 mm 1 mps 547 mmHg 95%
    01:00 +10°C° 0 mm 1 mps 546 mmHg 95%
    02:00 +10°C° 0 mm 1 mps 546 mmHg 94%
    03:00 +10°C° 0 mm 1 mps 546 mmHg 94%
    04:00 +9°C° 0 mm 1 mps 546 mmHg 93%
    05:00 +10°C° 0 mm 1 mps 547 mmHg 91%
    06:00 +11°C° 0 mm 1 mps 548 mmHg 89%
    07:00 +11°C° 0 mm 1 mps 548 mmHg 86%
    08:00 +13°C° 0 mm 1 mps 549 mmHg 75%
    09:00 +16°C° 0 mm 2 mps 551 mmHg 63%
    10:00 +18°C° 0 mm 3 mps 552 mmHg 51%
    11:00 +18°C° 0 mm 3 mps 551 mmHg 50%
    12:00 +19°C° 0 mm 3 mps 551 mmHg 48%
    13:00 +19°C° 0 mm 4 mps 550 mmHg 46%
    14:00 +18°C° 0.1 mm 4 mps 550 mmHg 50%
    15:00 +18°C° 0.1 mm 3 mps 549 mmHg 54%
    16:00 +17°C° 0.1 mm 3 mps 548 mmHg 58%
    17:00 +15°C° 0.1 mm 2 mps 547 mmHg 68%
    18:00 +13°C° 0.1 mm 1 mps 547 mmHg 78%
    19:00 +10°C° 0.1 mm 1 mps 546 mmHg 88%
    20:00 +10°C° 0 mm 1 mps 546 mmHg 88%
    21:00 +10°C° 0 mm 1 mps 546 mmHg 89%
    22:00 +9°C° 0 mm 1 mps 546 mmHg 89%
    23:00 +9°C° 0 mm 1 mps 546 mmHg 88%

    27 September, Friday

    Time Temperature Precipitation Wind Pressure Humidity
    00:00 +9°C° 0 mm 1 mps 546 mmHg 86%
    01:00 +9°C° 0 mm 1 mps 546 mmHg 84%
    02:00 +9°C° 0 mm 1 mps 545 mmHg 83%
    03:00 +9°C° 0 mm 1 mps 545 mmHg 82%
    04:00 +9°C° 0 mm 1 mps 545 mmHg 80%
    05:00 +10°C° 0 mm 1 mps 546 mmHg 78%
    06:00 +11°C° 0 mm 1 mps 547 mmHg 75%
    07:00 +11°C° 0 mm 1 mps 548 mmHg 73%
    08:00 +13°C° 0 mm 1 mps 549 mmHg 67%
    09:00 +15°C° 0 mm 2 mps 550 mmHg 61%
    10:00 +17°C° 0 mm 2 mps 552 mmHg 55%
    11:00 +18°C° 0.1 mm 2 mps 551 mmHg 55%
    12:00 +18°C° 0.1 mm 3 mps 551 mmHg 55%
    13:00 +19°C° 0.1 mm 3 mps 550 mmHg 56%
    14:00 +18°C° 0.6 mm 3 mps 549 mmHg 61%
    15:00 +18°C° 0.6 mm 3 mps 549 mmHg 65%
    16:00 +17°C° 0.6 mm 2 mps 548 mmHg 70%
    17:00 +15°C° 0.4 mm 2 mps 548 mmHg 78%
    18:00 +14°C° 0.4 mm 1 mps 547 mmHg 85%
    19:00 +12°C° 0.4 mm 1 mps 547 mmHg 93%
    20:00 +11°C° 0.1 mm 1 mps 547 mmHg 93%
    21:00 +11°C° 0.1 mm 1 mps 547 mmHg 94%
    22:00 +10°C° 0.1 mm 1 mps 547 mmHg 94%
    23:00 +10°C° 0 mm 1 mps 546 mmHg 93%
    Show more